Wind_Speed
37 38 38 37 37 37 39 41 42 42 42 42 42 43 44 43 43 41 39 37 37 35 34 33 33 32 32 32 31 27 22 21 20 20 21 22 22 22 21 21 22 22 23 24 24 24 25 26 26 27 26 26 26 27 26 26 24 24 25 24 22 21 21 20 13 10 14 17 18 19 20 19 19 18 19 20 19 19 21 23 24 25 24 24 25
38 39 37 37 36 37 39 40 40 39 39 39 40 42 43 43 42 39 37 36 35 34 33 33 32 31 31 31 27 22 21 22 20 19 20 22 23 24 23 23 24 24 23 24 26 25 25 26 27 27 27 26 26 27 26 25 24 24 24 23 22 22 21 21 18 12 11 13 15 18 18 16 17 18 17 18 20 21 23 23 22 21 22 23 23
38 37 35 37 38 39 39 40 40 39 38 38 40 42 42 41 39 37 36 35 33 33 33 31 31 29 27 26 23 21 22 22 20 20 22 24 24 25 24 24 24 25 25 26 26 26 26 26 28 27 26 25 26 26 26 26 25 25 25 25 24 23 22 21 20 15 12 12 14 17 18 17 18 18 16 19 23 23 22 21 20 21 22 23 23
37 36 34 36 37 37 38 38 38 37 37 39 40 41 40 38 36 35 34 33 32 31 28 26 26 25 21 20 21 21 21 21 21 22 25 26 27 26 26 27 27 28 29 29 28 28 27 27 28 27 26 25 26 27 27 26 26 25 25 25 25 25 23 22 21 18 16 15 14 15 16 17 18 18 18 21 21 19 19 20 21 20 20 20 20
36 35 34 34 34 35 36 36 36 36 37 40 40 40 38 35 35 33 32 32 29 24 22 23 23 22 21 21 21 21 22 23 24 25 26 28 28 28 28 28 29 30 30 30 30 29 29 29 28 27 27 27 27 27 27 26 26 26 25 25 25 23 22 21 20 19 18 17 16 15 15 17 19 20 18 16 17 18 19 20 18 17 17 17 17
34 33 32 32 33 35 36 36 36 37 39 40 39 37 35 34 34 33 32 31 26 19 21 26 27 25 24 22 21 22 22 23 25 25 27 28 29 29 30 30 31 31 31 31 30 30 29 29 29 28 28 28 27 27 26 25 25 25 24 24 22 21 21 21 20 18 16 17 18 16 16 17 18 18 15 15 17 20 20 18 16 15 14 15 17
32 31 30 31 32 35 36 37 37 38 38 38 36 34 33 32 32 32 32 32 28 25 26 29 30 30 29 27 25 24 22 22 23 23 26 28 29 30 30 30 31 30 30 30 29 29 29 28 28 28 27 27 27 26 25 24 24 24 25 23 20 20 20 19 18 16 14 16 17 16 15 15 15 15 17 18 18 16 14 15 17 15 14 15 18
30 31 30 31 33 36 37 36 35 34 34 33 31 31 31 30 30 30 31 31 31 31 30 29 29 30 30 30 29 27 24 23 24 25 26 28 29 30 30 30 30 29 29 28 28 28 28 27 27 26 26 26 25 25 24 24 23 23 23 20 19 20 20 17 16 14 13 14 15 14 15 15 13 13 15 15 12 10 9 12 17 19 17 17 19
30 31 30 32 36 38 35 33 32 31 30 29 29 29 29 29 29 30 31 31 31 30 29 28 28 29 30 30 29 29 28 28 28 27 28 28 28 29 29 29 28 28 28 27 27 26 26 26 25 25 25 24 24 24 23 23 22 21 20 20 20 20 19 17 14 12 11 13 14 13 13 13 11 10 10 9 9 11 13 15 18 19 19 20 19
30 30 31 35 38 35 32 30 30 28 28 28 29 29 29 29 29 30 31 30 30 29 28 28 28 29 29 29 28 28 28 28 27 26 26 26 26 26 27 27 27 27 27 26 25 25 24 24 24 23 23 22 22 22 21 21 20 20 21 21 21 21 19 17 15 13 12 13 13 11 10 10 10 8 9 10 10 13 15 15 16 17 18 19 17
30 30 33 37 36 32 30 30 29 28 29 29 29 30 29 29 30 30 30 29 29 28 28 28 28 27 26 26 27 27 26 26 25 24 24 24 24 25 25 25 25 25 26 25 25 24 23 22 21 21 20 20 20 20 20 21 22 23 24 24 24 24 22 18 15 14 13 12 11 10 10 11 11 9 9 10 10 13 14 13 14 15 13 10 9
30 32 35 38 35 31 31 30 29 30 30 30 31 30 29 28 29 29 29 29 28 27 27 27 26 25 24 24 25 26 26 25 24 24 24 24 24 25 25 25 25 25 25 25 24 23 22 21 21 20 20 20 20 21 22 24 24 25 25 26 26 25 24 20 16 14 13 12 11 11 11 11 11 10 9 10 11 13 14 13 11 11 9 8 8
30 33 37 37 35 33 31 29 29 31 31 31 31 29 29 29 30 30 29 27 26 25 26 26 25 25 25 25 26 26 26 25 25 24 24 24 24 24 24 24 24 24 24 23 22 22 21 21 20 20 21 22 23 24 24 24 24 24 24 23 22 21 21 20 19 16 14 12 12 12 11 9 10 11 9 10 12 13 12 12 11 9 10 11 12
30 33 36 36 35 33 30 29 31 32 31 30 29 29 30 31 31 29 28 27 26 26 26 26 26 26 26 26 26 26 25 25 24 24 24 24 24 23 23 22 22 22 22 21 21 21 21 22 22 22 23 23 23 23 21 20 19 19 19 17 16 16 17 18 19 19 18 16 16 15 13 10 11 12 11 10 12 12 11 12 12 12 14 16 19
29 32 34 34 32 30 30 30 32 32 31 30 29 30 31 31 30 29 29 28 28 28 27 27 27 27 27 26 26 26 25 24 23 23 23 23 23 23 23 22 22 22 21 21 22 22 22 23 23 23 22 22 21 20 19 17 15 15 15 14 12 13 13 14 14 16 17 18 18 18 16 13 11 11 11 10 11 11 12 14 16 17 19 21 21
30 32 32 32 30 29 30 31 32 31 30 29 30 32 32 31 31 30 29 28 28 27 27 28 28 28 27 27 26 26 25 24 23 23 23 23 24 24 24 23 23 22 21 21 21 21 21 22 21 21 20 20 19 19 17 16 14 13 12 11 10 9 9 8 8 10 12 13 14 15 14 13 12 13 14 14 14 14 14 16 18 16 16 16 15
32 33 33 33 31 30 31 32 33 32 31 32 33 34 34 33 32 31 30 29 28 28 28 28 28 28 28 27 27 26 25 24 23 23 24 24 24 24 24 23 22 21 20 20 19 20 20 20 20 18 18 17 17 17 16 14 12 10 9 8 8 8 7 6 6 8 9 10 12 13 14 15 16 17 18 17 16 14 14 15 15 11 10 10 9
34 36 35 34 32 31 33 34 35 35 34 36 38 37 36 35 34 33 32 31 30 30 29 28 27 27 27 27 27 26 25 24 23 23 23 23 23 23 23 23 21 20 19 19 18 18 18 18 17 16 16 15 15 14 13 11 9 8 8 8 9 9 7 5 6 7 8 10 12 13 14 16 16 16 16 15 14 13 13 15 13 10 10 10 8
38 38 35 33 32 32 34 35 36 37 38 40 41 40 38 37 35 34 32 32 31 29 28 27 26 26 26 26 25 24 23 22 22 22 22 21 22 22 22 23 21 19 18 18 16 16 16 16 15 15 14 13 12 10 9 8 7 7 7 7 8 7 5 5 6 7 8 9 10 11 11 12 11 11 12 12 12 11 12 15 14 12 13 13 11
38 34 31 31 31 32 33 35 37 39 41 41 40 39 37 35 34 33 32 31 30 29 28 27 27 26 25 24 23 22 22 22 22 21 21 21 21 21 22 23 23 21 19 19 18 16 16 15 14 14 13 12 11 9 9 8 8 8 7 7 8 7 7 8 9 9 8 9 10 10 10 9 9 9 9 10 10 9 10 13 14 14 15 15 14
28 26 26 28 30 31 33 35 37 38 38 37 36 35 35 35 35 35 33 31 30 29 28 27 26 24 23 22 21 21 21 21 22 21 20 20 19 20 21 22 23 22 21 20 18 17 16 15 14 13 13 12 11 10 9 9 9 9 9 9 9 8 9 11 11 10 10 10 10 9 8 7 7 7 7 8 8 9 10 12 13 14 16 17 16
23 23 24 26 28 30 33 34 34 33 31 32 34 34 35 35 36 36 35 32 31 30 28 27 25 23 21 20 20 20 20 20 21 20 19 19 19 18 19 19 19 19 20 19 18 17 16 15 14 13 12 11 11 10 10 10 10 10 11 10 9 9 9 9 9 9 8 8 7 6 6 5 6 5 6 8 8 10 11 13 15 16 18 19 20
23 21 22 25 27 29 31 31 31 29 29 31 33 33 34 34 34 35 34 32 31 30 28 27 26 23 21 19 19 20 20 19 20 19 19 19 19 18 18 18 17 18 18 18 17 15 14 13 12 11 11 10 10 9 9 9 9 10 9 9 8 8 8 8 7 7 7 6 5 5 5 5 6 7 7 8 9 11 13 16 18 19 20 22 23
20 20 22 24 25 26 27 28 29 28 28 29 29 30 32 33 32 33 33 33 32 28 25 27 26 21 18 18 18 19 19 18 17 17 17 18 18 17 18 18 18 17 17 16 14 12 11 11 10 10 10 9 9 8 8 8 8 8 7 7 8 7 7 6 5 5 4 4 4 5 5 6 6 8 9 9 12 15 17 19 20 20 21 24 25
17 19 21 21 22 22 22 24 26 25 26 26 25 27 30 29 30 31 31 33 33 27 23 26 25 19 16 17 19 20 20 19 19 17 17 17 16 16 16 16 15 13 13 13 12 11 10 9 9 10 9 9 9 8 8 8 7 7 7 7 7 5 4 4 3 2 2 3 4 5 6 7 8 9 11 13 16 17 18 17 18 18 20 22 24
17 17 17 16 17 18 18 19 20 22 23 23 23 25 26 25 25 26 25 27 29 26 22 22 21 17 15 17 21 23 22 22 21 19 17 17 15 14 14 13 11 10 9 10 10 9 9 8 8 9 9 9 9 9 9 8 8 8 7 6 5 4 3 2 1 2 2 3 5 6 7 8 9 11 13 15 15 15 15 15 16 16 16 18 20
14 13 12 12 12 13 14 15 15 17 19 20 20 22 21 19 17 16 14 16 18 19 18 18 16 14 13 16 21 24 23 22 21 18 17 16 14 13 13 12 12 10 9 9 9 8 9 9 9 9 9 9 8 8 8 9 8 7 6 4 3 2 1 1 1 2 3 4 5 7 8 9 11 12 13 14 14 14 14 14 15 16 15 16 19
8 7 7 8 8 9 9 10 9 9 12 14 14 14 15 15 13 9 6 7 10 12 15 16 15 16 19 21 23 22 19 20 20 17 16 16 15 14 14 13 13 12 10 10 10 9 9 10 9 9 9 8 8 8 7 7 6 4 3 2 1 1 1 2 3 3 4 5 6 8 10 10 12 13 13 14 15 15 14 14 15 17 17 17 17
1 3 5 6 8 10 10 9 9 9 10 12 13 12 12 13 12 9 5 4 8 13 16 16 15 19 22 22 19 14 11 12 15 14 14 15 14 14 14 13 13 12 10 10 10 10 10 9 8 8 8 7 7 6 5 5 3 2 1 0 1 2 2 3 3 4 4 6 8 10 11 12 13 14 14 15 15 15 14 15 16 17 18 17 17
6 6 6 6 8 11 12 13 14 13 12 12 14 17 17 16 14 12 10 8 7 10 14 14 14 17 19 16 12 9 9 9 9 9 9 9 9 9 10 11 11 10 9 9 10 10 9 8 7 7 7 6 5 4 3 2 2 1 1 2 2 2 3 3 4 5 6 8 9 11 12 12 13 14 14 15 16 16 16 16 17 18 18 18 18
8 8 8 7 8 11 14 15 16 16 15 15 16 18 19 20 19 17 14 13 12 11 12 12 12 14 16 15 12 10 10 9 8 7 6 6 5 5 6 7 7 8 8 9 9 8 8 7 6 6 5 4 3 3 2 1 1 2 2 3 3 3 4 5 5 6 8 10 11 12 13 14 15 15 16 16 17 18 17 17 18 18 19 19 19
11 10 10 10 11 13 13 14 15 16 16 17 18 18 16 15 16 18 18 16 15 14 14 13 13 12 12 13 13 12 11 9 8 6 5 4 4 4 6 6 6 6 7 8 8 7 6 6 6 5 4 3 3 2 1 1 1 2 3 4 4 5 5 6 7 9 10 12 13 13 14 15 15 16 16 17 18 18 18 18 18 18 19 19 19
17 15 13 13 15 15 14 15 16 17 16 16 16 16 15 12 10 12 15 17 17 16 15 14 13 12 11 10 11 11 9 7 5 4 2 2 3 4 5 5 5 5 7 8 7 7 6 6 5 4 4 3 2 1 0 1 2 2 3 4 5 5 6 7 8 9 10 11 12 13 14 15 15 16 17 17 18 18 18 18 18 17 18 19 19
22 19 17 17 17 16 16 16 16 16 16 16 15 15 14 14 12 11 11 11 12 13 14 13 11 10 10 8 7 7 6 5 4 3 2 2 1 1 3 3 3 3 4 5 6 6 6 6 5 4 4 3 2 1 1 1 2 2 3 3 4 5 6 7 8 9 10 11 13 13 14 15 15 16 17 16 16 17 17 17 18 17 17 18 19
22 21 19 18 17 15 15 15 14 13 13 13 12 12 11 12 12 12 11 9 8 9 10 11 10 9 9 8 7 6 6 6 7 7 6 5 4 3 4 2 0 1 1 2 3 4 5 5 5 5 5 5 4 4 4 4 5 5 5 6 6 6 7 8 8 9 10 12 12 13 13 14 14 15 16 16 16 17 17 17 17 17 17 18 19
21 20 18 17 15 14 13 13 13 12 12 11 11 11 11 10 10 10 10 11 10 9 9 10 10 9 9 8 7 6 7 8 8 8 7 6 5 6 5 2 1 2 3 3 3 4 6 7 7 7 7 6 6 5 5 5 5 5 6 6 6 6 7 7 8 9 10 11 12 12 13 13 14 14 16 17 17 16 17 17 17 17 18 19 21
19 18 16 14 13 13 12 12 12 11 11 11 10 9 9 9 10 10 9 9 9 9 9 9 9 9 8 7 6 6 6 6 6 7 7 6 6 7 6 4 3 3 3 4 5 5 7 7 6 6 6 5 4 4 4 4 5 5 5 5 5 5 6 7 8 8 9 10 10 11 11 12 13 14 15 15 16 16 17 17 18 19 19 20 21
17 15 13 11 11 11 11 11 10 9 9 10 9 8 8 8 8 8 8 7 7 8 8 6 6 7 7 6 5 5 5 5 5 5 6 6 6 7 7 6 5 5 4 4 3 3 4 4 3 3 3 2 3 4 4 4 4 4 4 4 4 4 4 5 6 6 7 8 8 9 10 11 12 12 13 14 16 16 17 17 18 18 19 19 19
16 15 13 11 10 10 9 8 8 8 7 7 7 7 7 7 6 6 5 6 6 7 6 5 6 6 5 4 3 4 5 4 3 4 6 6 7 7 6 6 5 4 3 2 0 1 1 1 2 2 2 3 3 3 2 2 2 2 3 3 3 3 3 4 4 5 6 6 7 8 9 10 11 12 13 14 15 15 16 17 17 17 18 19 19
15 14 13 12 11 9 8 7 6 6 6 5 5 5 5 5 4 4 4 4 5 5 5 6 6 5 4 2 1 2 3 3 3 4 6 7 7 6 5 4 3 2 0 1 3 4 4 4 3 2 1 1 1 1 1 1 2 2 2 3 3 3 3 3 4 5 5 6 7 8 9 10 11 12 13 14 15 15 16 17 17 17 18 19 20
12 12 12 12 11 10 9 8 8 7 5 4 4 4 4 4 4 3 3 3 3 4 5 6 6 6 5 3 2 3 4 4 4 5 6 7 7 6 5 3 1 1 2 4 5 5 4 3 2 1 1 2 2 2 1 1 1 1 2 3 3 3 4 4 4 5 6 7 8 9 9 10 11 12 14 15 15 16 17 17 18 19 19 19 20
11 10 9 10 9 9 9 8 8 8 7 6 6 5 4 4 4 4 4 4 4 5 5 5 6 6 5 4 3 3 4 3 2 3 4 5 6 5 4 2 0 1 2 3 3 4 4 4 4 3 2 1 1 0 0 1 1 2 2 3 3 4 4 5 5 6 6 7 8 9 11 12 13 14 15 16 16 17 17 18 18 19 19 19 20
10 9 8 8 8 8 7 6 6 7 7 6 6 5 5 4 4 4 4 4 4 4 4 5 5 5 3 3 3 2 1 1 1 1 2 3 4 3 2 1 1 2 2 2 3 4 5 5 5 5 4 4 4 4 4 3 3 3 3 3 3 4 5 6 6 6 6 7 9 11 12 14 15 15 15 16 16 17 18 18 19 19 19 20 20
10 9 7 6 7 6 6 5 5 5 5 5 5 5 4 4 4 3 3 3 3 3 4 5 5 4 2 3 3 2 1 1 1 1 2 2 2 1 1 2 2 2 2 2 3 4 4 4 5 5 5 6 6 6 6 6 5 5 5 4 4 5 6 7 7 8 8 10 12 13 14 15 15 16 17 17 17 18 18 19 19 20 20 21 20
9 7 6 5 5 5 5 5 5 5 4 4 4 4 5 5 4 4 4 4 3 3 4 4 3 2 2 3 3 2 2 1 1 2 2 1 0 1 2 3 2 2 2 2 3 3 3 4 4 5 5 5 6 7 7 7 7 7 7 6 6 7 8 8 9 10 10 12 13 14 15 16 17 18 18 19 19 20 20 20 20 21 21 21 21
8 7 5 5 5 4 4 4 4 4 4 4 4 4 5 5 5 5 5 5 4 4 3 3 3 3 3 2 2 1 1 1 1 1 1 0 1 2 2 3 2 2 1 1 2 3 3 3 4 4 5 5 6 7 7 8 8 8 8 8 8 9 9 10 11 11 12 14 15 16 18 19 19 20 20 20 20 20 21 21 22 22 22 22 21
7 6 5 4 4 4 4 4 4 4 4 4 4 3 3 3 3 3 3 3 3 3 2 2 2 2 2 1 1 1 1 1 1 1 1 1 2 2 3 2 2 2 2 2 3 3 3 3 4 5 5 6 7 7 8 8 9 8 8 8 9 9 10 11 12 14 15 16 18 19 21 21 20 20 20 20 21 21 22 23 23 22 22 22 22
6 5 4 3 3 3 3 4 4 4 3 3 3 2 2 2 2 2 2 2 1 1 1 1 1 1 0 1 1 1 1 1 1 1 1 2 2 2 2 2 2 2 2 3 3 4 4 4 5 5 6 7 8 8 9 9 9 9 9 8 8 9 9 10 12 14 17 18 19 20 20 20 20 21 21 22 22 22 23 24 23 22 22 22 22
6 4 4 3 3 3 3 3 3 3 3 3 3 2 2 2 1 1 1 1 1 1 1 0 0 0 1 0 1 1 1 1 1 1 1 1 2 2 2 2 3 3 3 4 4 5 5 5 5 6 7 7 8 9 9 9 9 9 8 7 7 8 9 10 12 15 17 19 19 19 19 20 22 23 23 23 23 23 23 23 23 23 23 23 23
6 5 4 4 3 3 2 2 2 2 2 2 2 2 2 2 1 1 1 1 1 1 1 1 1 1 1 1 1 1 1 1 1 1 1 2 2 3 3 3 3 4 4 4 5 6 6 6 6 6 6 7 8 9 9 10 9 8 7 7 8 9 10 12 14 16 17 18 18 19 20 22 23 23 23 22 22 22 22 22 22 23 23 23 23
7 6 5 5 4 3 3 2 2 2 2 2 2 1 2 2 1 1 1 1 1 1 1 2 2 2 2 2 1 1 1 1 1 1 1 2 2 3 3 4 4 4 4 5 5 6 6 6 6 6 6 7 8 9 9 10 8 7 7 8 9 10 12 14 17 18 18 18 19 21 22 23 22 22 21 21 21 21 22 22 23 23 24 24 24
Wind_Direction
262 258 255 254 251 249 248 246 245 244 243 243 242 242 243 243 242 242 242 241 241 240 238 237 237 236 235 234 234 230 227 228 227 224 225 226 226 227 227 226 227 228 230 231 230 230 232 234 237 238 237 237 238 240 241 241 240 241 243 245 243 245 247 247 252 263 265 266 272 280 287 289 288 292 296 297 301 305 304 304 306 307 306 305 305
263 259 256 255 254 253 250 247 245 244 243 243 242 242 242 242 241 240 239 240 240 238 237 237 236 234 234 234 231 226 226 228 227 223 223 225 226 228 228 228 230 230 230 230 231 232 233 233 236 238 238 237 238 239 240 240 239 241 242 244 245 245 246 249 252 261 271 269 271 278 284 286 288 293 295 295 298 301 301 302 304 304 303 302 301
266 262 259 258 257 254 251 247 246 244 242 242 242 241 240 240 240 239 238 239 238 237 237 237 236 233 232 230 226 225 226 227 226 224 223 225 226 227 228 229 229 229 228 229 231 232 231 232 234 237 236 236 237 240 242 241 240 241 243 244 245 247 249 250 253 261 272 277 276 278 282 284 288 292 293 295 297 299 299 300 301 300 298 298 298
269 265 262 260 258 253 249 247 246 243 241 240 240 240 239 238 239 238 237 237 237 237 235 233 233 230 226 224 223 224 225 223 223 224 225 227 228 227 229 229 228 229 230 231 232 231 231 231 233 235 234 234 237 240 240 240 241 241 244 246 247 250 251 252 255 261 271 280 278 277 282 285 287 290 293 295 295 296 298 299 300 298 297 297 297
272 269 264 261 257 252 248 246 244 241 238 238 238 238 237 236 236 236 234 235 235 233 230 228 227 224 221 222 222 222 223 222 223 225 226 229 230 229 229 229 229 230 231 232 232 231 231 231 232 234 234 234 236 238 237 239 241 242 244 247 247 249 252 255 260 263 268 275 276 277 282 285 287 289 290 292 296 301 301 299 299 298 299 299 298
272 270 266 263 259 254 249 244 241 239 237 236 235 235 234 233 234 233 233 233 229 223 224 227 226 223 222 223 222 222 223 223 224 226 227 229 229 228 228 228 229 229 230 231 232 232 231 232 234 234 233 233 234 236 237 239 241 243 244 246 248 252 255 257 260 262 264 269 273 280 284 284 286 287 285 290 300 304 304 305 305 302 302 304 302
272 270 268 264 260 257 251 245 241 238 236 235 233 232 233 233 234 234 233 231 226 224 227 230 229 227 226 225 223 222 221 221 222 222 224 226 226 225 224 226 227 227 229 230 231 232 233 235 236 235 235 236 238 239 240 241 242 243 244 245 249 254 254 253 256 259 265 270 273 278 281 281 281 282 284 292 299 300 302 310 311 307 308 308 304
271 270 267 263 260 257 253 249 245 241 237 235 233 233 234 234 234 233 232 229 227 228 230 231 230 228 228 228 227 224 221 221 221 220 222 224 223 223 223 223 224 226 228 230 231 233 236 237 237 238 238 239 240 241 241 240 240 239 239 240 244 248 250 253 256 256 259 266 270 273 278 280 280 282 288 295 300 297 300 309 306 304 308 306 301
269 267 263 260 259 258 255 251 248 245 241 237 236 235 234 233 232 230 230 228 228 229 229 229 228 226 226 227 227 226 225 225 225 223 222 222 222 223 224 224 224 225 226 229 232 233 234 234 235 235 236 236 237 239 239 238 236 234 234 236 239 242 245 247 246 245 252 260 266 269 272 272 273 278 283 285 288 292 301 306 300 300 307 306 306
266 263 260 261 262 259 255 252 249 246 243 240 239 236 234 232 230 228 227 226 224 224 224 224 225 225 225 225 224 224 225 226 226 224 223 222 222 222 224 225 225 226 226 226 227 228 228 228 228 229 230 231 232 233 234 234 233 233 235 235 233 233 234 238 240 243 249 254 256 257 259 261 261 262 268 275 284 291 298 304 300 305 315 316 320
265 262 262 266 266 260 254 250 248 246 244 241 239 236 233 230 227 225 224 222 220 220 220 221 222 224 224 223 223 222 222 223 223 222 221 220 219 220 221 222 223 224 224 223 221 221 220 220 221 222 223 224 226 228 231 234 237 238 238 238 237 235 233 233 234 233 232 237 242 243 245 257 262 261 267 277 284 286 291 298 299 306 320 324 321
262 263 266 268 266 261 254 249 246 244 241 238 235 233 229 225 222 220 219 218 216 215 217 218 220 221 221 221 221 221 220 220 219 218 216 214 215 217 217 218 220 221 222 220 218 216 214 213 215 216 219 223 227 232 235 238 240 240 241 242 241 239 234 230 225 219 217 222 234 239 242 254 267 269 270 276 280 284 290 293 291 295 303 297 284
257 258 262 263 261 259 255 249 245 242 237 233 230 225 221 219 217 215 214 212 211 210 212 214 215 216 215 215 217 217 217 217 216 214 212 211 211 213 215 216 216 217 218 216 213 211 211 213 216 220 226 229 232 234 235 236 237 237 237 238 236 234 230 226 224 220 218 219 228 239 242 247 261 267 267 271 278 286 292 290 288 289 287 282 275
250 251 254 254 253 252 251 247 244 241 235 228 222 217 216 214 212 210 207 205 204 204 206 208 209 210 210 211 212 213 213 213 212 211 210 210 210 211 212 212 212 213 214 214 215 216 219 222 225 227 229 229 228 226 225 223 222 221 222 222 224 224 222 223 225 227 229 230 234 244 250 250 259 268 271 272 276 284 288 286 291 292 285 282 280
246 247 249 249 247 246 244 242 240 237 230 223 217 214 212 210 207 204 202 201 201 202 203 204 205 206 207 208 209 210 211 211 210 212 212 212 212 213 213 213 213 215 216 218 221 223 223 224 223 221 221 219 217 212 207 203 201 201 204 207 211 215 214 217 223 228 232 236 239 248 256 258 261 266 270 275 278 281 282 282 286 289 288 289 286
247 249 249 249 247 244 241 237 234 230 224 218 215 212 210 208 206 203 201 201 202 203 204 204 204 205 206 207 207 208 210 211 212 215 218 217 215 213 212 211 211 212 213 214 214 215 215 214 211 209 208 206 203 200 195 193 193 194 198 202 209 216 218 219 226 233 236 236 239 246 251 254 258 262 268 274 277 281 285 285 286 287 287 288 284
248 250 248 248 247 244 240 235 230 224 218 213 212 210 208 206 204 201 198 197 199 202 203 203 204 205 205 205 205 205 207 209 211 213 216 216 212 208 204 202 201 202 202 202 202 202 203 202 199 197 197 196 194 192 191 191 192 195 201 210 221 232 235 233 238 244 243 241 244 250 254 258 262 266 269 271 270 273 278 280 282 285 281 280 282
248 249 247 246 246 244 241 234 227 220 214 211 210 207 205 204 203 200 197 196 198 200 201 200 201 203 204 204 203 203 203 204 204 207 210 210 208 204 199 194 191 191 191 191 191 192 192 192 191 189 189 189 188 187 188 191 196 205 217 228 239 249 255 257 257 258 257 258 260 263 264 264 266 268 269 268 264 259 257 261 269 275 271 269 279
252 251 250 249 248 245 240 233 226 219 214 213 211 206 204 202 201 198 197 196 197 197 197 196 195 197 200 201 200 199 198 197 198 200 204 205 205 203 197 190 185 183 182 180 180 181 181 180 180 180 180 181 183 186 190 196 208 224 231 240 253 269 284 288 281 278 275 273 272 271 269 271 271 271 272 271 268 259 250 254 262 264 264 269 276
259 258 256 253 250 245 238 231 226 221 217 214 210 205 202 200 197 194 193 193 194 192 191 191 190 190 193 194 193 193 194 193 193 196 199 200 201 201 197 192 186 181 176 174 172 170 171 171 171 172 174 177 183 189 197 206 222 237 242 249 263 282 295 291 287 287 281 274 273 271 272 276 278 278 281 281 276 266 254 253 256 255 260 270 273
267 265 260 253 247 242 237 232 226 222 218 213 206 202 200 198 194 191 188 189 189 186 185 185 184 183 184 186 187 189 191 192 191 192 194 194 194 197 198 197 193 184 175 170 167 165 165 169 172 176 180 184 189 195 205 215 225 236 245 254 266 276 282 283 285 283 276 272 273 275 277 285 289 288 286 283 274 266 259 256 258 258 259 266 270
274 268 259 250 244 240 237 231 224 219 215 210 203 199 198 196 192 189 185 184 183 181 180 179 175 171 172 177 180 182 186 189 188 186 187 186 185 190 196 199 196 186 174 166 164 166 169 173 179 184 188 192 196 200 207 214 223 236 247 256 261 263 264 268 268 266 265 267 271 278 287 296 300 294 284 281 277 269 266 265 267 268 265 263 264
275 265 255 247 241 237 233 227 220 215 212 206 201 197 194 190 188 186 182 177 174 173 173 171 165 158 158 163 169 173 175 180 182 179 179 180 180 183 186 186 184 180 174 167 166 169 173 176 180 185 189 194 199 205 212 218 226 235 241 244 245 247 247 247 247 250 258 269 279 293 304 305 300 295 287 283 279 274 273 275 276 275 273 270 267
272 259 251 244 236 231 226 220 215 213 209 203 198 194 189 185 184 183 178 173 169 168 169 167 160 153 150 152 158 165 167 169 172 174 176 176 175 175 175 174 174 176 176 175 175 177 179 182 186 190 197 202 204 206 211 214 216 218 221 227 234 238 236 231 233 244 260 284 301 305 309 303 294 289 285 284 287 286 283 283 281 279 276 277 277
266 253 245 238 231 227 221 213 210 208 203 198 195 190 185 182 181 180 177 174 171 167 166 166 161 153 148 148 151 157 161 161 162 164 167 169 168 169 170 170 173 177 177 176 178 180 183 188 191 191 194 195 191 189 194 198 200 204 212 220 227 230 227 221 230 257 279 303 307 300 299 296 288 284 284 288 291 289 285 283 282 280 280 280 281
258 247 238 231 227 219 211 206 204 199 194 193 191 188 183 181 181 179 177 177 174 168 163 162 159 151 147 146 149 152 155 156 155 157 160 162 163 167 170 170 172 176 176 172 171 174 179 182 183 181 178 175 173 176 182 186 190 196 205 214 216 213 215 223 245 293 304 305 301 296 295 294 290 288 289 289 288 283 280 281 282 281 282 283 283
256 243 228 218 209 202 199 195 190 187 185 184 184 182 180 181 182 180 179 178 174 167 162 159 154 148 144 145 148 151 153 154 154 156 160 161 162 168 171 170 172 176 176 173 172 173 173 171 169 166 162 161 165 171 176 180 183 187 192 198 202 201 217 283 306 308 301 299 298 295 294 294 292 290 289 286 283 280 280 281 282 283 285 286 284
255 229 203 183 169 169 173 170 165 166 169 167 163 165 172 175 172 170 184 194 184 171 162 158 156 154 152 150 150 151 154 159 162 164 167 168 169 172 173 173 174 178 179 176 170 166 162 159 157 158 159 163 167 171 174 177 176 175 172 168 196 245 316 343 339 317 301 297 296 294 293 292 290 288 287 284 283 283 284 282 281 284 287 286 283
173 158 151 138 130 127 128 133 131 123 126 126 117 116 134 150 147 133 121 167 185 175 160 151 153 156 152 149 150 146 140 155 168 174 176 177 180 183 183 180 179 180 183 177 166 158 157 159 161 166 170 173 173 171 171 168 160 147 111 58 304 303 330 339 330 318 307 300 296 292 290 289 286 285 286 285 284 286 286 283 282 284 285 283 280
86 93 98 102 116 121 122 126 124 115 107 101 94 92 97 107 113 106 94 93 119 146 144 137 144 151 144 135 135 133 124 141 166 174 175 181 188 193 192 189 185 183 180 170 162 160 164 168 170 172 172 171 168 160 145 130 111 65 10 352 339 330 330 323 314 310 306 300 295 291 287 286 286 287 288 288 289 291 288 283 281 282 281 280 280
69 65 71 80 104 118 119 121 122 119 116 115 109 99 91 88 89 91 93 95 95 104 113 114 122 136 133 120 113 117 122 137 154 161 165 174 187 201 209 207 198 188 176 167 164 165 168 167 165 165 163 154 141 121 101 78 22 355 340 335 332 326 321 316 312 312 307 300 294 290 287 287 288 289 290 289 290 290 287 283 282 281 280 280 282
64 58 58 67 82 95 101 105 109 112 114 116 117 112 102 89 82 81 85 91 94 94 98 101 103 111 119 118 116 117 120 131 144 154 168 186 206 230 238 234 219 198 181 174 169 162 162 163 160 156 148 132 119 98 82 40 342 335 326 323 323 319 312 307 304 303 301 297 293 290 290 291 290 289 290 289 288 288 288 286 284 284 284 284 283
67 62 61 68 75 77 78 83 89 94 96 98 101 104 103 98 91 85 84 88 92 92 91 95 100 106 112 120 126 126 127 136 147 154 177 221 238 244 242 234 221 200 184 177 167 157 156 156 146 135 127 120 119 114 105 308 305 305 304 304 305 306 308 309 308 306 303 301 299 297 296 296 296 294 293 291 290 290 290 290 290 290 291 290 288
70 70 71 75 76 74 75 79 82 85 89 92 95 97 100 106 113 111 99 91 88 86 85 88 96 106 111 113 119 126 130 132 128 118 108 104 124 204 216 212 206 192 181 171 159 150 148 142 130 122 121 117 109 100 51 359 344 341 339 334 331 331 334 336 330 319 312 307 303 298 297 297 296 295 294 292 292 293 293 295 296 296 295 294 292
65 67 71 75 75 75 77 81 84 84 85 87 90 92 98 108 115 116 115 109 97 86 86 88 91 100 106 104 104 113 119 116 113 114 115 116 124 155 184 195 227 24 61 104 122 124 119 113 105 99 96 86 70 57 48 34 26 20 9 359 349 338 331 325 316 306 301 298 295 293 294 296 296 296 297 296 296 296 295 297 299 298 298 298 297
59 58 59 63 68 72 75 78 82 85 87 89 93 96 99 105 109 110 113 115 112 103 98 97 99 105 110 108 105 104 100 101 110 120 124 131 145 155 156 139 46 24 26 36 59 75 77 80 81 78 75 71 59 47 33 15 360 346 338 332 323 312 302 298 297 296 295 294 293 293 298 300 300 302 302 300 299 300 301 303 305 305 304 304 301
55 54 53 55 62 71 78 83 87 92 95 96 95 94 97 102 106 107 105 105 105 104 105 107 110 110 104 97 97 101 100 104 122 132 132 136 140 134 122 103 88 76 55 46 55 65 67 69 72 71 68 63 47 19 350 335 326 318 313 309 300 293 291 291 294 296 295 295 296 299 303 305 305 307 307 305 305 306 307 306 306 303 302 301 299
50 51 52 58 66 71 74 81 89 97 102 103 101 100 100 100 104 107 104 103 108 108 107 110 111 103 93 86 94 117 133 146 147 134 123 120 115 110 107 107 109 108 94 81 80 75 66 60 60 56 46 17 335 319 313 311 310 306 307 303 294 292 299 302 302 303 303 303 306 309 310 311 312 312 312 309 306 304 303 303 303 302 302 301 300
43 43 46 55 67 72 72 75 81 85 88 93 98 106 110 110 110 110 106 111 120 119 111 107 100 91 88 97 115 134 147 149 131 107 98 97 98 100 105 112 114 118 121 117 90 347 350 337 320 320 318 310 310 317 318 321 326 326 324 316 305 310 324 323 320 320 317 313 312 314 313 311 310 310 307 302 299 299 300 302 302 301 302 301 300
34 35 38 42 48 54 57 60 64 67 70 73 77 88 95 93 92 97 100 111 122 118 109 105 95 81 75 77 95 138 144 130 119 118 109 103 103 107 113 118 119 119 151 295 296 293 291 292 293 302 327 25 63 63 53 12 342 330 320 315 315 321 330 329 323 321 321 317 314 311 307 304 305 304 299 295 294 295 297 297 297 297 298 298 299
30 32 37 42 43 43 40 38 38 40 42 46 54 64 72 75 79 85 87 87 86 85 89 92 87 82 83 81 107 168 163 142 134 138 127 117 117 120 121 124 114 15 317 307 305 303 305 312 319 344 59 90 95 86 79 44 326 314 312 318 323 322 323 325 321 316 313 311 307 302 299 299 300 298 295 292 293 295 294 293 294 296 295 295 296
27 29 33 39 45 46 41 38 41 42 40 39 39 38 42 50 59 68 72 74 78 88 95 93 90 91 89 77 94 146 153 135 133 142 126 118 124 128 128 130 20 311 294 296 310 315 320 329 337 340 350 5 16 28 228 256 282 301 309 316 320 316 314 314 311 309 307 304 300 297 295 294 292 290 290 290 292 294 292 290 291 292 292 293 295
28 29 29 32 39 43 40 39 42 39 36 38 40 41 45 50 50 53 62 67 74 89 99 98 101 109 98 59 49 62 79 79 102 100 85 96 112 121 128 189 270 266 256 265 288 302 311 322 328 326 323 318 311 299 284 283 293 300 308 315 313 308 307 306 305 307 306 301 297 294 292 289 287 286 287 288 289 288 287 285 285 286 288 289 291
31 32 30 31 37 41 42 44 42 31 25 30 35 39 45 50 47 48 58 61 64 84 100 101 106 112 88 35 20 12 7 25 123 106 92 99 117 136 241 279 277 259 246 255 270 284 300 312 315 317 318 317 314 309 307 309 310 311 316 318 309 302 303 303 302 303 303 299 297 294 291 288 288 287 287 287 286 285 284 283 284 285 287 288 287
30 29 22 18 27 34 37 42 46 43 39 39 39 42 47 49 44 40 41 46 57 79 91 88 81 69 40 22 17 26 38 70 129 125 120 131 198 262 286 298 296 279 259 256 264 275 288 295 299 307 311 315 320 323 324 328 331 330 328 322 311 304 304 301 298 298 297 293 292 291 291 291 291 290 289 287 286 285 286 286 287 287 286 286 285
35 35 25 18 22 26 26 34 45 51 53 50 47 50 56 56 51 46 44 45 51 55 50 36 26 21 19 17 21 36 41 49 81 95 90 302 305 308 312 319 321 312 305 300 290 290 289 288 294 304 312 319 327 332 336 339 340 338 336 330 323 319 317 313 309 305 300 297 295 295 294 294 293 290 289 288 288 289 289 288 286 285 283 283 284
42 43 34 25 23 24 26 33 36 41 47 50 48 48 46 44 47 51 52 49 45 36 19 9 6 9 13 17 13 16 26 40 53 42 338 320 325 328 327 333 340 342 340 330 317 309 305 303 308 316 322 329 334 338 341 342 340 337 338 338 336 332 329 323 316 311 309 308 306 301 296 293 290 290 291 292 291 292 290 286 284 283 283 284 285
40 38 31 26 22 18 21 25 25 28 34 36 32 33 39 51 64 66 56 46 45 37 19 15 15 5 5 358 336 334 351 17 4 334 324 324 325 326 327 330 331 334 332 326 320 315 311 313 319 325 331 336 340 340 339 338 335 333 335 338 337 332 327 321 317 315 314 311 304 297 291 289 288 290 293 293 290 288 286 284 284 285 285 286 286
30 27 23 21 17 15 14 11 13 16 18 14 12 24 40 51 60 60 50 42 47 47 39 50 29 335 328 335 334 332 348 3 346 329 327 320 316 319 324 321 321 324 324 323 322 319 315 316 322 328 333 338 339 336 334 333 331 331 331 330 327 324 323 322 321 319 314 306 298 292 290 289 290 291 293 292 290 287 284 284 285 287 287 286 284
20 22 26 25 20 19 14 11 16 19 14 11 16 23 22 20 19 21 16 16 26 25 353 329 328 327 319 317 334 344 347 352 347 334 323 315 312 315 315 312 312 318 320 323 325 322 318 316 320 324 328 331 331 329 329 328 325 322 317 316 319 324 328 327 322 314 308 304 301 299 298 297 295 294 293 292 290 289 288 289 290 291 289 287 284
11 15 18 16 15 15 8 4 11 14 9 17 24 17 10 9 5 353 349 346 334 325 314 311 313 318 314 311 322 333 336 334 329 317 309 311 311 308 306 305 307 310 313 319 325 324 319 316 314 316 320 324 326 326 324 321 316 310 309 316 323 327 326 321 314 310 310 312 311 309 306 303 299 295 293 293 293 294 294 295 295 293 291 289 287
Height
693 693 692 692 691 691 691 691 691 692 692 693 694 694 694 694 695 696 698 699 700 702 703 705 707 708 710 712 714 716 718 719 720 721 721 722 723 724 725 726 726 726 727 728 729 730 731 732 733 734 736 737 737 738 739 740 741 741 742 742 742 743 743 743 741 738 737 739 739 739 739 738 737 736 736 734 733 732 731 730 728 726 725 723 722
689 688 688 688 687 687 686 686 686 687 688 689 689 689 689 689 690 692 694 695 696 698 700 701 703 705 706 708 710 712 714 715 716 716 717 717 718 719 720 721 722 723 724 725 726 727 728 729 730 731 732 733 734 735 735 737 737 738 738 739 739 739 740 740 739 736 735 736 737 736 737 736 735 734 734 733 732 731 729 728 726 725 723 721 720
685 685 685 684 682 682 681 681 681 682 683 683 683 683 684 685 687 688 690 691 693 694 696 698 699 701 703 704 706 708 709 710 711 711 712 713 714 715 716 717 718 719 720 721 722 723 724 725 726 728 729 730 730 731 732 733 734 734 735 735 735 735 736 737 736 734 733 733 734 734 734 734 733 732 732 731 730 729 727 725 724 723 721 719 717
682 681 680 679 678 677 677 676 677 677 677 678 677 678 680 681 683 685 687 688 690 691 693 695 696 698 699 700 702 703 704 705 706 706 707 708 709 710 712 713 714 715 716 717 718 719 720 721 722 724 726 726 727 728 729 729 730 731 731 732 732 732 733 734 733 732 732 731 731 732 732 732 731 730 730 729 727 726 725 723 722 720 718 717 715
678 677 676 675 674 673 672 672 672 672 672 672 673 674 676 678 679 682 684 685 687 689 690 691 692 694 695 695 697 698 699 700 701 702 702 703 705 706 707 708 709 710 711 713 714 715 716 717 718 720 721 722 723 724 725 726 727 728 728 729 729 730 730 730 730 730 730 729 729 729 730 730 728 728 727 726 725 724 722 720 719 717 716 714 712
675 674 673 672 671 669 668 668 667 667 667 667 668 670 672 674 675 677 679 681 683 685 686 686 687 689 690 691 692 693 694 695 696 697 698 699 700 702 703 704 705 706 707 708 710 711 712 713 715 716 717 718 719 720 721 722 723 724 725 725 726 727 727 727 728 728 728 727 727 727 727 727 726 725 724 724 723 721 719 717 716 715 714 712 709
673 671 671 670 668 667 665 664 663 662 663 664 665 667 669 670 671 673 675 677 679 680 680 681 683 684 686 687 688 689 690 691 691 692 693 694 695 697 698 699 700 702 703 705 706 707 709 710 711 712 713 714 715 716 717 719 720 721 722 722 723 724 724 724 725 725 725 725 725 725 725 725 724 723 722 721 720 720 718 716 714 712 711 709 707
670 669 668 667 665 663 662 662 662 661 662 663 664 664 666 667 669 670 672 673 674 675 676 677 679 681 682 682 683 684 685 686 687 688 689 690 691 693 694 696 697 699 700 702 703 704 705 706 707 708 710 711 712 713 714 715 716 717 718 719 721 721 721 722 722 723 723 723 723 723 723 722 721 721 719 719 718 717 717 716 713 710 708 707 704
667 665 665 663 660 659 660 661 661 661 661 662 661 662 663 664 666 667 668 669 669 670 672 674 675 677 678 678 679 680 681 682 683 684 685 687 688 690 691 693 694 696 697 698 700 701 702 703 704 705 706 707 708 710 711 712 713 714 715 716 717 718 718 719 720 720 721 721 720 720 720 719 718 718 718 717 717 716 715 714 711 708 705 703 700
664 662 661 658 656 657 658 658 658 659 659 659 659 660 660 661 662 663 664 664 665 666 668 670 671 672 673 675 676 676 677 678 679 681 682 684 685 687 689 690 692 693 694 695 696 697 699 700 701 702 703 704 706 707 708 709 710 712 713 713 714 715 716 716 717 717 718 718 717 717 717 716 715 715 715 715 715 714 713 712 709 706 703 699 695
661 660 658 655 654 655 654 654 655 655 656 656 657 657 658 658 658 659 660 661 662 663 664 666 667 669 670 671 672 673 674 675 676 678 680 681 683 684 685 687 689 690 691 692 693 694 696 697 698 699 700 702 703 704 705 706 708 709 710 711 711 712 712 713 714 715 715 715 714 714 714 713 712 712 712 712 712 712 711 709 707 704 703 700 696
658 657 654 653 653 653 652 651 651 651 652 652 653 654 655 655 656 656 657 657 658 659 661 662 664 666 667 669 670 670 671 673 674 675 677 678 680 681 683 684 686 687 688 690 691 692 693 695 696 697 698 699 701 702 703 704 705 706 707 707 708 708 709 710 710 711 711 711 711 711 711 710 710 710 710 710 710 709 708 707 705 703 702 701 699
655 653 652 651 650 650 650 649 648 648 648 649 650 651 652 652 652 653 653 654 655 657 658 659 661 663 665 666 667 668 669 671 672 673 674 676 677 679 680 681 683 685 686 688 689 690 691 693 694 695 696 697 698 699 699 700 702 703 704 704 704 705 705 706 707 707 707 708 708 707 707 708 708 708 708 709 708 707 706 704 703 701 699 699 697
651 649 648 647 646 646 647 647 646 645 646 646 647 648 648 649 649 650 650 651 653 654 655 657 659 661 662 664 665 666 668 669 671 672 673 674 675 677 678 679 681 683 684 686 687 688 689 691 692 693 694 694 695 695 696 697 699 700 701 701 701 702 702 703 704 704 704 704 704 703 704 705 706 706 706 707 706 705 704 702 701 699 697 696 694
645 643 642 641 641 642 642 642 642 643 644 644 645 645 646 646 647 647 647 648 649 651 653 654 656 658 660 661 663 664 666 667 669 671 672 673 674 675 676 678 679 681 682 683 684 686 687 688 689 690 691 691 691 692 694 695 696 697 698 699 700 700 701 701 701 701 701 701 701 701 702 703 703 704 704 705 704 703 702 701 699 697 695 693 691
639 637 636 635 636 636 637 638 638 639 641 642 642 642 643 644 644 644 645 646 647 649 651 652 654 656 657 659 660 661 663 665 667 669 671 672 673 673 674 676 677 678 679 680 682 683 685 686 687 687 688 689 689 691 692 694 695 696 697 698 698 699 699 699 699 699 699 699 699 699 700 700 701 701 701 702 702 701 701 699 697 696 694 692 688
633 631 631 630 631 632 633 634 634 635 636 637 637 638 639 640 641 641 642 643 645 646 648 650 651 653 655 657 657 658 660 662 664 666 668 670 671 672 672 673 674 676 677 678 680 681 682 684 685 686 687 687 689 690 691 692 693 694 695 696 697 697 697 698 698 697 697 697 697 697 697 697 697 697 698 699 699 700 699 697 695 695 695 691 686
627 626 626 626 627 629 629 629 629 630 631 631 631 633 634 636 636 637 638 639 641 644 646 648 650 652 654 655 655 656 657 659 662 664 666 668 670 671 671 672 672 674 675 677 678 679 681 682 683 684 686 687 689 690 691 691 692 693 695 695 696 696 696 696 696 695 695 695 695 694 694 694 694 694 694 695 696 697 697 695 695 695 694 692 687
621 621 622 623 624 624 624 625 625 626 625 625 625 627 629 631 632 634 635 637 639 642 645 646 648 650 652 654 654 654 655 657 660 662 664 666 668 670 671 671 671 672 674 675 677 678 679 681 682 684 685 687 688 688 689 690 691 693 694 695 695 695 695 695 694 694 694 693 693 692 692 691 691 691 691 691 692 693 693 693 694 694 693 690 688
617 618 619 619 620 619 620 621 621 621 620 620 622 624 626 628 630 631 632 635 638 641 642 644 646 648 650 651 652 652 653 656 658 661 662 664 666 668 670 671 671 671 672 673 675 676 678 680 681 683 684 685 686 686 687 688 690 691 693 693 693 693 694 693 693 694 693 692 691 691 690 689 688 688 688 689 689 690 691 691 692 692 691 688 687
616 616 615 615 616 616 616 616 617 617 618 619 620 622 623 625 626 628 630 633 636 638 640 642 644 646 647 648 649 651 653 655 657 659 661 662 664 666 668 670 670 671 672 673 674 675 677 679 680 682 683 684 684 685 686 687 688 689 690 690 691 692 692 692 692 693 692 691 690 689 687 686 686 686 686 686 687 688 689 689 689 689 688 686 685
614 613 613 613 613 613 613 614 615 616 618 618 619 619 620 622 624 625 627 629 632 636 638 640 642 643 644 646 647 650 652 654 656 658 659 661 662 664 666 668 670 671 671 672 674 675 676 677 679 680 681 682 683 684 685 686 687 687 688 689 689 690 691 691 691 691 690 689 688 686 685 684 684 684 685 685 686 686 687 687 686 686 685 684 683
611 611 611 611 611 610 611 612 614 615 616 617 617 617 618 620 623 624 625 626 629 633 636 638 639 640 642 644 646 649 652 654 656 657 659 660 661 662 664 666 668 669 671 672 673 675 676 676 677 678 679 680 681 682 683 684 685 686 687 688 688 688 689 689 689 689 687 686 684 683 682 682 683 683 684 684 685 685 685 684 684 683 682 680 680
609 609 608 608 608 609 609 610 612 614 616 617 618 618 618 619 620 622 622 623 626 630 633 635 636 637 639 642 645 648 651 653 655 657 659 660 661 662 663 664 666 667 668 670 672 673 674 675 676 677 678 678 679 680 681 682 683 685 686 686 686 686 687 686 686 685 683 682 681 681 681 682 682 683 683 684 684 684 683 682 680 680 679 677 675
608 606 606 607 607 608 609 610 611 613 615 617 618 619 619 620 621 621 622 622 624 626 629 631 632 634 637 640 643 647 649 651 653 656 658 660 661 662 663 664 665 667 667 668 669 671 673 674 675 676 676 677 677 678 679 680 681 683 684 684 684 684 684 683 682 681 680 679 679 680 681 681 682 682 683 683 683 682 681 680 678 677 676 674 671
607 606 606 605 606 608 609 611 612 612 614 616 618 620 621 622 623 623 623 624 624 625 626 628 629 632 635 638 642 645 647 649 651 654 657 659 660 662 663 663 665 667 667 667 669 670 672 674 675 676 676 676 676 677 678 680 681 682 682 682 682 681 680 680 679 678 678 678 679 679 680 681 681 682 682 682 681 680 679 678 676 674 673 671 668
608 607 606 606 607 608 610 612 613 614 614 615 616 619 622 624 627 627 627 627 627 626 625 626 628 630 633 637 641 644 646 648 650 653 656 658 659 662 663 663 664 666 667 668 669 670 673 674 675 675 675 676 677 678 679 680 680 681 680 680 679 678 678 677 677 677 677 677 678 679 680 680 680 681 681 680 680 679 677 676 674 672 671 669 666
610 609 609 608 607 609 611 613 615 617 618 617 618 619 622 624 627 630 631 631 630 628 626 626 627 628 631 635 639 642 645 647 649 652 655 658 660 662 663 663 664 666 667 668 669 671 672 673 674 675 675 676 677 678 678 679 678 678 677 677 676 676 676 675 675 675 676 677 678 678 679 679 679 680 679 679 677 676 675 673 671 669 668 667 663
612 612 612 611 610 610 611 614 617 619 621 621 621 621 622 624 627 630 632 633 633 631 629 628 629 630 632 635 638 641 644 646 649 653 656 659 661 663 663 663 664 665 667 668 669 670 671 672 673 674 675 676 676 676 676 676 675 674 674 674 674 675 674 674 674 675 675 676 677 677 678 678 678 678 677 676 674 673 672 670 669 667 665 663 660
614 614 614 614 614 612 612 614 616 619 622 624 625 625 625 626 628 631 633 635 635 635 633 633 633 633 635 637 639 641 643 647 651 655 658 660 662 664 665 665 665 666 667 667 667 668 670 671 672 673 673 673 673 673 672 672 672 672 672 673 673 673 673 673 674 674 675 675 676 676 677 677 676 675 674 672 670 669 669 668 666 665 662 660 656
616 617 618 618 617 616 616 616 618 619 622 625 627 628 629 629 631 633 634 635 636 637 637 637 637 637 637 638 639 642 646 649 654 657 660 662 664 667 667 667 666 665 665 665 666 668 669 670 670 670 671 670 670 669 669 670 670 671 671 672 672 672 672 673 673 673 674 674 675 675 675 674 673 672 671 669 668 667 666 665 663 661 659 656 652
619 621 622 621 621 621 621 621 622 623 624 626 627 629 630 632 634 636 636 636 637 638 639 639 640 640 640 641 642 645 649 652 655 659 661 663 665 666 668 669 668 666 665 665 666 666 667 668 668 668 668 667 667 667 668 669 670 670 671 671 671 671 672 672 673 673 674 674 674 673 672 672 671 669 669 668 667 665 664 663 661 658 655 651 648
623 625 625 625 625 625 626 626 627 627 628 629 631 631 632 634 636 638 639 639 639 640 641 642 642 642 644 646 646 648 650 653 655 658 660 662 664 667 668 669 669 668 666 665 665 665 665 666 666 665 665 666 666 667 668 669 669 670 670 670 671 671 672 672 673 673 673 673 673 672 672 671 670 669 668 667 666 665 663 660 658 655 651 647 644
628 629 629 629 629 629 630 631 632 632 633 633 634 635 636 637 637 639 639 640 641 642 643 644 645 645 648 649 650 650 651 653 655 657 659 661 664 667 669 670 671 670 668 666 665 664 664 664 663 664 664 665 666 667 668 669 669 670 670 670 670 671 671 672 672 673 674 674 673 673 672 671 670 669 668 667 665 664 662 659 656 652 649 646 643
633 633 634 633 633 634 634 634 635 636 637 637 638 638 639 639 639 639 639 640 642 645 647 648 648 649 651 652 652 652 653 655 655 656 658 660 664 667 670 671 671 671 670 668 667 665 664 663 663 664 665 666 667 668 669 670 670 670 670 670 670 671 671 672 673 674 674 674 673 673 672 671 670 669 667 665 664 662 659 657 654 651 648 646 643
638 638 639 638 638 638 638 638 638 638 639 639 640 640 641 641 642 642 642 643 644 646 648 649 650 650 652 653 654 654 655 655 655 656 658 660 664 667 669 670 670 670 670 670 668 666 665 664 663 664 665 667 668 669 670 671 671 671 671 671 671 671 671 672 672 672 673 673 672 671 671 670 669 668 666 664 663 661 658 655 653 650 648 647 644
642 642 642 643 643 642 641 641 641 641 641 641 642 642 643 643 644 644 645 645 646 647 648 650 651 651 651 652 653 654 655 656 657 658 659 661 662 664 666 667 668 668 669 669 668 667 666 665 665 666 667 668 669 670 671 671 671 671 671 671 670 670 670 670 670 670 671 671 670 669 669 668 667 667 666 664 661 659 657 655 653 651 649 647 644
646 645 645 645 645 645 645 644 644 643 643 642 642 643 644 645 645 646 646 647 648 648 649 651 652 652 652 652 653 655 656 658 659 659 659 659 660 661 663 664 666 666 667 668 668 667 667 666 666 666 667 667 668 669 669 670 670 670 670 669 669 668 668 668 668 668 668 668 668 668 667 667 666 666 665 663 661 659 657 656 653 650 648 646 643
649 648 648 647 647 647 647 647 646 645 645 644 644 644 644 645 646 647 648 649 649 650 651 652 652 653 654 654 655 656 657 658 659 658 657 657 658 660 662 664 665 666 667 668 668 668 668 667 666 665 665 665 666 666 667 668 668 668 668 668 668 667 666 666 666 666 666 666 666 666 666 665 665 665 664 663 661 659 657 655 653 650 647 644 642
653 652 651 651 650 650 650 649 648 648 647 647 646 646 646 646 647 648 650 650 650 651 651 652 653 654 655 656 656 657 658 658 659 659 658 658 659 660 662 664 666 668 668 669 670 669 668 666 665 664 663 663 664 664 665 666 667 667 668 667 667 665 664 664 664 664 664 664 664 665 665 664 664 663 663 661 660 658 656 654 651 649 647 643 640
656 655 654 654 653 653 653 652 652 651 651 650 649 648 648 648 649 650 651 652 652 652 653 654 654 655 656 657 658 659 659 660 661 660 659 658 659 660 662 664 665 667 668 669 669 669 668 667 665 664 663 663 663 663 664 665 665 666 666 665 665 664 663 663 662 663 663 663 664 664 664 663 663 662 661 660 658 656 655 652 650 648 645 643 639
658 658 657 656 656 655 655 655 655 654 654 653 652 651 651 650 650 651 651 652 653 654 655 656 656 657 658 659 660 660 661 661 662 661 660 658 658 658 659 661 663 664 666 667 668 668 667 667 666 666 665 664 663 663 664 664 663 663 662 662 662 662 662 662 661 662 662 662 663 663 663 662 662 660 659 657 655 654 652 651 649 647 644 641 638
661 660 659 658 658 657 657 657 657 657 656 655 654 654 653 653 653 653 653 653 654 655 656 656 657 658 659 660 660 661 661 662 662 662 660 659 658 658 659 660 662 663 664 664 665 666 666 666 666 667 667 666 666 665 664 663 661 660 659 658 659 660 661 661 660 661 661 661 661 662 661 661 660 658 656 654 652 651 649 648 646 644 641 638 635
662 661 661 660 659 659 659 659 659 659 658 658 657 656 655 655 655 655 655 656 656 656 657 657 658 658 659 659 660 661 661 662 662 662 661 660 659 660 661 662 662 662 662 662 663 663 664 664 665 666 666 667 667 666 664 662 660 657 656 656 657 658 659 660 660 660 660 660 660 660 660 659 658 655 653 651 650 648 646 644 643 640 638 635 632
663 662 662 662 661 661 661 661 661 661 660 660 659 658 658 658 658 657 657 657 657 657 657 658 658 658 659 659 660 661 661 662 662 662 661 661 661 661 662 662 662 663 663 662 661 661 662 663 664 664 665 665 664 663 662 660 657 655 654 654 655 656 657 658 659 659 659 659 659 659 658 657 655 653 651 649 648 645 643 641 639 637 635 632 628
664 664 663 663 663 663 663 662 662 662 662 661 661 660 660 660 659 659 659 659 659 659 659 659 659 660 660 660 661 661 661 662 662 661 661 661 661 661 662 662 663 663 662 662 662 662 662 662 662 663 662 662 661 660 658 656 655 654 654 654 654 654 655 657 658 658 658 658 657 657 655 654 652 651 649 647 645 642 639 637 636 634 631 628 624
665 665 665 664 664 664 664 664 664 663 663 662 662 661 661 661 661 661 661 660 660 660 660 660 661 661 661 662 662 661 661 661 660 660 660 660 660 661 661 661 662 662 662 662 662 663 662 662 661 661 660 659 657 656 655 654 653 653 653 653 653 654 655 657 657 657 656 655 654 654 652 651 650 648 647 644 642 639 636 635 633 630 627 624 621
667 666 666 665 665 665 664 664 664 664 663 663 663 662 662 662 662 662 662 662 662 662 662 662 662 662 662 662 662 661 660 660 659 659 659 659 660 660 661 661 661 662 662 662 663 662 662 661 660 659 658 656 655 654 653 653 653 653 652 653 653 655 656 657 656 655 654 653 652 651 650 649 647 645 643 641 638 636 634 631 629 626 623 620 617
668 668 667 666 666 665 665 664 664 664 664 663 663 663 663 663 663 663 662 662 662 662 662 662 662 662 662 662 661 660 660 659 659 659 659 660 660 660 661 661 661 662 662 662 662 661 660 660 658 657 656 654 654 653 653 652 652 652 652 653 655 656 656 656 654 653 653 652 651 649 647 646 644 642 640 637 635 633 631 628 625 622 619 616 613
670 669 668 667 667 666 665 665 664 664 664 664 663 663 663 663 663 663 663 662 662 662 662 662 662 662 661 661 660 660 660 659 659 660 660 660 660 661 661 661 661 661 661 661 660 660 659 658 657 656 655 654 653 653 652 652 652 652 653 654 655 655 654 654 653 652 651 649 647 645 644 642 641 639 636 634 632 629 627 624 620 618 615 612 610
671 670 669 668 667 667 666 665 665 664 664 664 663 663 663 663 663 663 663 663 663 663 662 662 662 662 661 661 661 660 660 660 660 660 660 660 661 661 661 661 661 660 660 660 659 659 658 657 656 656 655 654 653 653 652 652 653 653 654 654 654 654 653 653 651 649 647 645 643 642 641 639 637 635 633 631 628 625 622 620 617 615 613 610 607